[Date Prev][Date Next][Thread Prev][Thread Next] - [Date Index][Thread Index][Author Index]

2 Line ISS Keps 4-16



ISS
1 25544U 98067A   05106.13080619  .00025079  00000-0  19830-3 0  2529
2 25544 051.6453 218.5680 0006841 016.8176 045.7394 15.71175732365920
----
Via the sarex mailing list at AMSAT.ORG courtesy of AMSAT-NA.
To unsubscribe, send "unsubscribe sarex" to Majordomo@amsat.org



AMSAT Top AMSAT Home